Aérodrome :
LOGIN :

S'inscrire | Disclaimer

   EN    FR    IT 

 










Légende :    VFR   VFR Marginal   IFR   IFR Intensif   IFR Très Intensif
Visi : 
Plafond : 
>= 8 km
>= 3000ft
5 à 8 km
1000 à 3000 ft
1500m à 5 km
500 à 1000 ft
800 à 1500m
200 à 500 ft
< 800m
< 200 ft
Symboles :   Orages  Brouillard  Fortes neiges  Fortes précipitations  Vent > 20 kt
SIGMETs :   Divers  Orages  Givrage  Turbulence  Onde Orograph.  Cendres Volcan.







- Altitude de l'aérodrome : 327 ft
- Code IATA : BHX
- Voir les cartes d'approche


EGBB - Birmingham

DERNIER METAR :
  • 252320Z 07007KT 030V100 CAVOK M02/M07 Q1032

METARs EXPIRÉS :
  • 252250Z 07007KT CAVOK M02/M07 Q1031
  • 252220Z 08007KT CAVOK M02/M07 Q1031
  • 252150Z 08009KT CAVOK M01/M07 Q1031
  • 252120Z 08010G26KT 040V190 CAVOK M01/M07 Q1030
  • 252050Z 08011KT CAVOK M01/M07 Q1030
  • 252020Z 08008KT CAVOK M00/M07 Q1030

TAF TAF EGBB
Valide du 25 à 18h jusqu'au 26 à 18h UTC


251700Z 2518/2618 07010KT 9999 FEW045
PROB30
TEMPO 2604/2618 2000 -SHSN BKN009
ATIS : +44 121 780 0910
Pas de NOTAMs connus pour ce terrain.



MET'MAP, la Météo Aéronautique d'un coup d'oeil ! - Copyright ORBIFLY Décembre 2007 - Disclaimer

ORBIFLY MET'MAP TEAM :

Programmation & Développement : Alexandra Zaïnal
Conception & Développement : Baudouin d'Aumeries
Co-Programmation & Développement : Marc-Olivier Méhu
Soutien technique & logistique : Manuel Goepfert

Contact : metmap@orbifly.com




SOURCES & CREDITS :

   NOAA